"Time","Value","Approval","myLocation"
"2023-04-21 00:00",1.84813384467558,"Approved","OW204"
"2023-04-21 01:00",1.84216944766221,"Approved","OW204"
"2023-04-21 02:00",1.83621115764885,"Approved","OW204"
"2023-04-21 03:00",1.83165674863548,"Approved","OW204"
"2023-04-21 04:00",1.83574240862211,"Approved","OW204"
"2023-04-21 05:00",1.83506003160875,"Approved","OW204"
"2023-04-21 06:00",1.83301361359538,"Approved","OW204"
"2023-04-21 07:00",1.83251325758202,"Approved","OW204"
"2023-04-21 08:00",1.83256096056865,"Approved","OW204"
"2023-04-21 09:00",1.83307270355529,"Approved","OW204"
"2023-04-21 10:00",1.83054437854192,"Approved","OW204"
"2023-04-21 11:00",1.82818608852855,"Approved","OW204"
"2023-04-21 12:00",1.82592979551519,"Approved","OW204"
"2023-04-21 13:00",1.82604153850182,"Approved","OW204"
"2023-04-21 14:00",1.82787525748846,"Approved","OW204"
"2023-04-21 15:00",1.82684305047509,"Approved","OW204"
"2023-04-21 16:00",1.82454880046173,"Approved","OW204"
"2023-04-21 17:00",1.82432858044836,"Approved","OW204"
"2023-04-21 18:00",1.82598838243499,"Approved","OW204"
"2023-04-21 19:00",1.82535417842163,"Approved","OW204"
"2023-04-21 20:00",1.82448190340826,"Approved","OW204"
"2023-04-21 21:00",1.8221457013949,"Approved","OW204"
"2023-04-21 22:00",1.82177154238153,"Approved","OW204"
"2023-04-21 23:00",1.81900337636817,"Approved","OW204"
"2023-04-22 00:00",1.8154571853548,"Approved","OW204"
"2023-04-22 01:00",1.81416105134143,"Approved","OW204"
"2023-04-22 02:00",1.81612496232807,"Approved","OW204"
"2023-04-22 03:00",1.8203887603147,"Approved","OW204"
"2023-04-22 04:00",1.81747065030134,"Approved","OW204"
"2023-04-22 05:00",1.81516253028797,"Approved","OW204"
"2023-04-22 06:00",1.81159835927461,"Approved","OW204"
"2023-04-22 07:00",1.81614817326124,"Approved","OW204"
"2023-04-22 08:00",1.82158000724787,"Approved","OW204"
"2023-04-22 09:00",1.82557388423451,"Approved","OW204"
"2023-04-22 10:00",1.82911570722114,"Approved","OW204"
"2023-04-22 11:00",1.82978561120778,"Approved","OW204"
"2023-04-22 12:00",1.82839358619441,"Approved","OW204"
"2023-04-22 13:00",1.83016149218104,"Approved","OW204"
"2023-04-22 14:00",1.83352740116768,"Approved","OW204"
"2023-04-22 15:00",1.83157732815431,"Approved","OW204"
"2023-04-22 16:00",1.83178330514095,"Approved","OW204"
"2023-04-22 17:00",1.83086120012758,"Approved","OW204"
"2023-04-22 18:00",1.83003321611422,"Approved","OW204"
"2023-04-22 19:00",1.82690722910085,"Approved","OW204"
"2023-04-22 20:00",1.82496514708748,"Approved","OW204"
"2023-04-22 21:00",1.82251707207412,"Approved","OW204"
"2023-04-22 22:00",1.81792504606075,"Approved","OW204"
"2023-04-22 23:00",1.81588096604739,"Approved","OW204"
"2023-04-23 00:00",1.81066885003402,"Approved","OW204"
"2023-04-23 01:00",1.82045273902066,"Approved","OW204"
"2023-04-23 02:00",1.82673662700729,"Approved","OW204"
"2023-04-23 03:00",1.82551851799392,"Approved","OW204"
"2023-04-23 04:00",1.82515834298056,"Approved","OW204"
"2023-04-23 05:00",1.81754611396719,"Approved","OW204"
"2023-04-23 06:00",1.81253177295383,"Approved","OW204"
"2023-04-23 07:00",1.80975938494046,"Approved","OW204"
"2023-04-23 08:00",1.8130912189271,"Approved","OW204"
"2023-04-23 09:00",1.81299696891373,"Approved","OW204"
"2023-04-23 10:00",1.81737052890036,"Approved","OW204"
"2023-04-23 11:00",1.814096256887,"Approved","OW204"
"2023-04-23 12:00",1.81516393687363,"Approved","OW204"
"2023-04-23 13:00",1.80948367086027,"Approved","OW204"
"2023-04-23 14:00",1.8120233828469,"Approved","OW204"
"2023-04-23 15:00",1.81201514883354,"Approved","OW204"
"2023-04-23 16:00",1.81048294182017,"Approved","OW204"
"2023-04-23 17:00",1.8120527328068,"Approved","OW204"
"2023-04-23 18:00",1.81077258079344,"Approved","OW204"
"2023-04-23 19:00",1.81452028278007,"Approved","OW204"
"2023-04-23 20:00",1.81050394476671,"Approved","OW204"
"2023-04-23 21:00",1.80762367875334,"Approved","OW204"
"2023-04-23 22:00",1.80754141573998,"Approved","OW204"
"2023-04-23 23:00",1.80496702972661,"Approved","OW204"
"2023-04-24 00:00",1.80106267771324,"Approved","OW204"
"2023-04-24 01:00",1.79798629469988,"Approved","OW204"
"2023-04-24 02:00",1.80296396268651,"Approved","OW204"
"2023-04-24 03:00",1.80503952067315,"Approved","OW204"
"2023-04-24 04:00",1.79896913065978,"Approved","OW204"
"2023-04-24 05:00",1.79895267864642,"Approved","OW204"
"2023-04-24 06:00",1.80093223163305,"Approved","OW204"
"2023-04-24 07:00",1.80140579161968,"Approved","OW204"
"2023-04-24 08:00",1.80211941960632,"Approved","OW204"
"2023-04-24 09:00",1.80635701959295,"Approved","OW204"
"2023-04-24 10:00",1.80793868357959,"Approved","OW204"
"2023-04-24 11:00",1.81262234556622,"Approved","OW204"
"2023-04-24 12:00",1.81280600755286,"Approved","OW204"
"2023-04-24 13:00",1.81091364253949,"Approved","OW204"
"2023-04-24 14:00",1.80835734952612,"Approved","OW204"
"2023-04-24 15:00",1.80669706051276,"Approved","OW204"
"2023-04-24 16:00",1.81136074549939,"Approved","OW204"
"2023-04-24 17:00",1.80921244348603,"Approved","OW204"
"2023-04-24 18:00",1.80566214347266,"Approved","OW204"
"2023-04-24 19:00",1.8059938644593,"Approved","OW204"
"2023-04-24 20:00",1.81126342844593,"Approved","OW204"
"2023-04-24 21:00",1.80747916743256,"Approved","OW204"
"2023-04-24 22:00",1.8060688224192,"Approved","OW204"
"2023-04-24 23:00",1.80632651440583,"Approved","OW204"
"2023-04-25 00:00",1.79811828039247,"Approved","OW204"
"2023-04-25 01:00",1.7974259143791,"Approved","OW204"
"2023-04-25 02:00",1.79199770336574,"Approved","OW204"
"2023-04-25 03:00",1.80580334035237,"Approved","OW204"
"2023-04-25 04:00",1.810317081339,"Approved","OW204"
"2023-04-25 05:00",1.81022283132564,"Approved","OW204"
"2023-04-25 06:00",1.81192258831227,"Approved","OW204"
"2023-04-25 07:00",1.81576629529891,"Approved","OW204"
"2023-04-25 08:00",1.81160412328554,"Approved","OW204"
"2023-04-25 09:00",1.81416192727217,"Approved","OW204"
"2023-04-25 10:00",1.81118166125881,"Approved","OW204"
"2023-04-25 11:00",1.81509140724544,"Approved","OW204"
"2023-04-25 12:00",1.81722124323208,"Approved","OW204"
"2023-04-25 13:00",1.82072299821871,"Approved","OW204"
"2023-04-25 14:00",1.82027481020535,"Approved","OW204"
"2023-04-25 15:00",1.81903461219198,"Approved","OW204"
"2023-04-25 16:00",1.82297243917861,"Approved","OW204"
"2023-04-25 17:00",1.82491626016525,"Approved","OW204"
"2023-04-25 18:00",1.82916396215188,"Approved","OW204"
"2023-04-25 19:00",1.83194973513852,"Approved","OW204"
"2023-04-25 20:00",1.83312340812515,"Approved","OW204"
"2023-04-25 21:00",1.82749519711179,"Approved","OW204"
"2023-04-25 22:00",1.82647297909842,"Approved","OW204"
"2023-04-25 23:00",1.81297884208505,"Approved","OW204"
"2023-04-26 00:00",1.81209458107169,"Approved","OW204"
"2023-04-26 01:00",1.80896836805832,"Approved","OW204"
"2023-04-26 02:00",1.80796024704496,"Approved","OW204"
"2023-04-26 03:00",1.80676999303159,"Approved","OW204"
"2023-04-26 04:00",1.80270770701823,"Approved","OW204"
"2023-04-26 05:00",1.79661157300486,"Approved","OW204"
"2023-04-26 06:00",1.79855927499149,"Approved","OW204"
"2023-04-26 07:00",1.80848899797813,"Approved","OW204"
"2023-04-26 08:00",1.80670884596476,"Approved","OW204"
"2023-04-26 09:00",1.8080725299514,"Approved","OW204"
"2023-04-26 10:00",1.81039625993803,"Approved","OW204"
"2023-04-26 11:00",1.80945018292467,"Approved","OW204"
"2023-04-26 12:00",1.8121720279113,"Approved","OW204"
"2023-04-26 13:00",1.81287789089793,"Approved","OW204"
"2023-04-26 14:00",1.81535167788457,"Approved","OW204"
"2023-04-26 15:00",1.8118134778712,"Approved","OW204"
"2023-04-26 16:00",1.81259314385784,"Approved","OW204"
"2023-04-26 17:00",1.81152075584447,"Approved","OW204"
"2023-04-26 18:00",1.81072251083111,"Approved","OW204"
"2023-04-26 19:00",1.81213225681774,"Approved","OW204"
"2023-04-26 20:00",1.81234188880437,"Approved","OW204"
"2023-04-26 21:00",1.81047161179101,"Approved","OW204"
"2023-04-26 22:00",1.80775538677764,"Approved","OW204"
"2023-04-26 23:00",1.80362506476428,"Approved","OW204"
"2023-04-27 00:00",1.80099274475091,"Approved","OW204"
"2023-04-27 01:00",1.79752646273755,"Approved","OW204"
"2023-04-27 02:00",1.80376817272418,"Approved","OW204"
"2023-04-27 03:00",1.80663585271081,"Approved","OW204"
"2023-04-27 04:00",1.80030353269745,"Approved","OW204"
"2023-04-27 05:00",1.80543913468408,"Approved","OW204"
"2023-04-27 06:00",1.80531280867072,"Approved","OW204"
"2023-04-27 07:00",1.81022643565735,"Approved","OW204"
"2023-04-27 08:00",1.80859023364399,"Approved","OW204"
"2023-04-27 09:00",1.81116801563062,"Approved","OW204"
"2023-04-27 10:00",1.81285378861725,"Approved","OW204"
"2023-04-27 11:00",1.81420360260389,"Approved","OW204"
"2023-04-27 12:00",1.81287750159052,"Approved","OW204"
"2023-04-27 13:00",1.81234540857716,"Approved","OW204"
"2023-04-27 14:00",1.81316126056379,"Approved","OW204"
"2023-04-27 15:00",1.81685314055043,"Approved","OW204"
"2023-04-27 16:00",1.81954302153706,"Approved","OW204"
"2023-04-27 17:00",1.81985687652369,"Approved","OW204"
"2023-04-27 18:00",1.82143077551033,"Approved","OW204"
"2023-04-27 19:00",1.82176660549696,"Approved","OW204"
"2023-04-27 20:00",1.8257983264836,"Approved","OW204"
"2023-04-27 21:00",1.82349209047023,"Approved","OW204"
"2023-04-27 22:00",1.82207986045687,"Approved","OW204"
"2023-04-27 23:00",1.8215616384435,"Approved","OW204"
"2023-04-28 00:00",1.81592943143013,"Approved","OW204"
"2023-04-28 01:00",1.81138124241677,"Approved","OW204"
"2023-04-28 02:00",1.8101829974034,"Approved","OW204"
"2023-04-28 03:00",1.82123680639004,"Approved","OW204"
"2023-04-28 04:00",1.82298662037667,"Approved","OW204"
"2023-04-28 05:00",1.8237883743633,"Approved","OW204"
"2023-04-28 06:00",1.82866815434994,"Approved","OW204"
"2023-04-28 07:00",1.83361597033657,"Approved","OW204"
"2023-04-28 08:00",1.83875579532321,"Approved","OW204"
"2023-04-28 09:00",1.84051970630984,"Approved","OW204"
"2023-04-28 10:00",1.84239360629648,"Approved","OW204"
"2023-04-28 11:00",1.84392155828311,"Approved","OW204"
"2023-04-28 12:00",1.84536948726974,"Approved","OW204"
"2023-04-28 13:00",1.84597946025638,"Approved","OW204"
"2023-04-28 14:00",1.85041540224301,"Approved","OW204"
"2023-04-28 15:00",1.84904735022965,"Approved","OW204"
"2023-04-28 16:00",1.85029328121628,"Approved","OW204"
"2023-04-28 17:00",1.85068116520292,"Approved","OW204"
"2023-04-28 18:00",1.85297304518955,"Approved","OW204"
"2023-04-28 19:00",1.85683884017618,"Approved","OW204"
"2023-04-28 20:00",1.85920851816282,"Approved","OW204"
"2023-04-28 21:00",1.85776820714945,"Approved","OW204"
"2023-04-28 22:00",1.85378594313609,"Approved","OW204"
"2023-04-28 23:00",1.85640168212272,"Approved","OW204"
"2023-04-29 00:00",1.85425138310936,"Approved","OW204"
"2023-04-29 01:00",1.85244314909599,"Approved","OW204"
"2023-04-29 02:00",1.85287886508262,"Approved","OW204"
"2023-04-29 03:00",1.84534654506926,"Approved","OW204"
"2023-04-29 04:00",1.83686627905589,"Approved","OW204"
"2023-04-29 05:00",1.83505393604253,"Approved","OW204"
"2023-04-29 06:00",1.83962161602916,"Approved","OW204"
"2023-04-29 07:00",1.8398633260158,"Approved","OW204"
"2023-04-29 08:00",1.83913311700243,"Approved","OW204"
"2023-04-29 09:00",1.83945085298906,"Approved","OW204"
"2023-04-29 10:00",1.8385226419757,"Approved","OW204"
"2023-04-29 11:00",1.83927844896233,"Approved","OW204"
"2023-04-29 12:00",1.84042226894897,"Approved","OW204"
"2023-04-29 13:00",1.8438301309356,"Approved","OW204"
"2023-04-29 14:00",1.84615796892224,"Approved","OW204"
"2023-04-29 15:00",1.84751788490887,"Approved","OW204"
"2023-04-29 16:00",1.8466698098955,"Approved","OW204"
"2023-04-29 17:00",1.84593960088214,"Approved","OW204"
"2023-04-29 18:00",1.84404746186877,"Approved","OW204"
"2023-04-29 19:00",1.84903123685541,"Approved","OW204"
"2023-04-29 20:00",1.85003487584204,"Approved","OW204"
"2023-04-29 21:00",1.84575061482868,"Approved","OW204"
"2023-04-29 22:00",1.84432639881531,"Approved","OW204"
"2023-04-29 23:00",1.84039219480194,"Approved","OW204"
"2023-04-30 00:00",1.83589195178858,"Approved","OW204"
"2023-04-30 01:00",1.83277572677521,"Approved","OW204"
"2023-04-30 02:00",1.83608746976185,"Approved","OW204"
"2023-04-30 03:00",1.83807124474848,"Approved","OW204"
"2023-04-30 04:00",1.83571295473512,"Approved","OW204"
"2023-04-30 05:00",1.83756265472175,"Approved","OW204"
"2023-04-30 06:00",1.83992633970838,"Approved","OW204"
"2023-04-30 07:00",1.84144607369502,"Approved","OW204"
"2023-04-30 08:00",1.84142585368165,"Approved","OW204"
"2023-04-30 09:00",1.84565757366829,"Approved","OW204"
"2023-04-30 10:00",1.84988330165492,"Approved","OW204"
"2023-04-30 11:00",1.85080303564156,"Approved","OW204"
"2023-04-30 12:00",1.85418481362819,"Approved","OW204"
"2023-04-30 13:00",1.85333051861482,"Approved","OW204"
"2023-04-30 14:00",1.85038632460146,"Approved","OW204"
"2023-04-30 15:00",1.85107809058809,"Approved","OW204"
"2023-04-30 16:00",1.85428184357473,"Approved","OW204"
"2023-04-30 17:00",1.85595962556136,"Approved","OW204"
"2023-04-30 18:00",1.859129416548,"Approved","OW204"
"2023-04-30 19:00",1.86115514353463,"Approved","OW204"
"2023-04-30 20:00",1.86161882852126,"Approved","OW204"
"2023-04-30 21:00",1.8592485515079,"Approved","OW204"
"2023-04-30 22:00",1.85978426749453,"Approved","OW204"
"2023-04-30 23:00",1.85650400148117,"Approved","OW204"
"2023-05-01 00:00",1.8498917724678,"Approved","OW204"
"2023-05-01 01:00",1.84709152945443,"Approved","OW204"
"2023-05-01 02:00",1.84556531544107,"Approved","OW204"
"2023-05-01 03:00",1.8565490914277,"Approved","OW204"
"2023-05-01 04:00",1.86156482941434,"Approved","OW204"
"2023-05-01 05:00",1.86307058040097,"Approved","OW204"
"2023-05-01 06:00",1.86637033738761,"Approved","OW204"
"2023-05-01 07:00",1.86658208037424,"Approved","OW204"
"2023-05-01 08:00",1.86975786436087,"Approved","OW204"
"2023-05-01 09:00",1.87345773534751,"Approved","OW204"
"2023-05-01 10:00",1.87678956933414,"Approved","OW204"
"2023-05-01 11:00",1.88145336632078,"Approved","OW204"
"2023-05-01 12:00",1.88341528030741,"Approved","OW204"
"2023-05-01 13:00",1.88475510529405,"Approved","OW204"
"2023-05-01 14:00",1.88233288728068,"Approved","OW204"
"2023-05-01 15:00",1.88292864826731,"Approved","OW204"
"2023-05-01 16:00",1.88476036925395,"Approved","OW204"
"2023-05-01 17:00",1.88604214624058,"Approved","OW204"
"2023-05-01 18:00",1.89115788522722,"Approved","OW204"
"2023-05-01 19:00",1.88970370421385,"Approved","OW204"
"2023-05-01 20:00",1.88580745620049,"Approved","OW204"
"2023-05-01 21:00",1.88654716818712,"Approved","OW204"
"2023-05-01 22:00",1.88408299717375,"Approved","OW204"
"2023-05-01 23:00",1.88710472916039,"Approved","OW204"
"2023-05-02 00:00",1.88766030914702,"Approved","OW204"
"2023-05-02 01:00",1.88044619613366,"Approved","OW204"
"2023-05-02 02:00",1.88304583912029,"Approved","OW204"
"2023-05-02 03:00",1.87094748110693,"Approved","OW204"
"2023-05-02 04:00",1.86209352609356,"Approved","OW204"
"2023-05-02 05:00",1.86854933208019,"Approved","OW204"
"2023-05-02 06:00",1.86970513906683,"Approved","OW204"
"2023-05-02 07:00",1.87124096905346,"Approved","OW204"
"2023-05-02 08:00",1.8688908960401,"Approved","OW204"
"2023-05-02 09:00",1.87528677102673,"Approved","OW204"
"2023-05-02 10:00",1.87510861601337,"Approved","OW204"
"2023-05-02 11:00",1.875704491,"Working","OW204"
